Sheppard Air Force Base-Wichita Falls Municipal Airport
KSPS : now visible

Airfield :











YOU CAN JOIN US ON...

 
LOGIN :

Register | Disclaimer

   EN    FR    IT 

 









Legend :    VFR   Marginal VFR   IFR   Intensive IFR   Very Intensive IFR
Visi :
Ceiling :
>= 8 km
>= 3000ft
5 to 8 km
1000 to 3000 ft
1500m to 5 km
500 to 1000 ft
800 to 1500m
200 to 500 ft
< 800m
< 200 ft
Symbols :   Thunderstorms  Fog  Heavy snow  Heavy precipitations  Wind > 20 kt






- Airport Elevation : 1019 ft
- IATA code : SPS


KSPS - Sheppard Air Force Base-Wichita Falls Municipal

CURRENT METAR :
  • 282352Z 35011KT 10SM CLR 21/01 A3015 RMK AO2 SLP203 T02110011 10250 20211 55001

EXPIRED METARs :
  • 282252Z 35019G23KT 10SM CLR 23/M01 A3014 RMK AO2 PK WND 36029/2214 SLP200 T02331006
  • 282152Z 34017G24KT 10SM FEW060 24/00 A3015 RMK AO2 PK WND 36027/2120 SLP200 T02440000

TAF KSPS
Valid from the 29 at 00:00 until the 30 at 00:00 UTC


282325Z 2900/2924 34015KT P6SM SKC
FM290300 28008KT P6SM SKC
FM291400 33012KT P6SM SCT250
KZFW FIR / North America



MET'MAP, your aeronautical weather chart ! - Copyright ORBIFLY December 2007 - Disclaimer

ORBIFLY MET'MAP TEAM :

Programming & Development : Alexandra Zaïnal
Concept & original design : Baudouin d'Aumeries
Assistance for programming : Marc-Olivier Méhu
Technical & hardware support : Manuel Goepfert

Contact : metmap@orbifly.com




SOURCES & CREDITS :

   NOAA       Earth
Advisory